[[{"header":{"parameterUnit":"m.s-1","parameterCategory":1,"la1":30.2991,"la2":30.254,"lo1":-89.0895,"lo2":-89.0444,"dy":0.0017,"dx":0.0017,"nx":28,"ny":28,"refTime":"2026-02-15T03:00:00:Z","depth":0,"parameterNumber":2,"parameterNumberName":"U-component_of_WINDS"},"data":[0,0,0,0,0,0,0,0,0,0,0,0,0,0,0,0,0,0,0,0,0,0,0,0,0,0,0,0,0,0,0,0,0,0,0,0,0,0,0,0,0,0,0,0,0,0,0,0,0,0,0,0,0,0,0,0,0,0,-2.7201,-2.7201,0,-2.7211,-2.7211,-2.7211,-2.7168,-2.7167,-2.7165,-2.7164,-2.7172,-2.7173,-2.7175,0,0,0,0,0,0,0,0,0,0,0,0,0,-2.7144,-2.7146,-2.7201,-2.7201,-2.7202,-2.7211,-2.7211,-2.7211,-2.7168,-2.7167,-2.7165,-2.7164,-2.7172,-2.7173,-2.7175,0,0,0,0,0,0,0,0,0,0,0,0,0,-2.7163,-2.7146,-2.7201,-2.7181,-2.718,-2.7211,-2.7211,-2.7211,-2.7168,-2.7167,-2.7165,-2.7163,-2.7171,-2.7173,-2.7175,-2.7226,0,0,-2.7181,-2.7182,0,0,0,0,0,0,0,0,-2.7162,-2.7165,-2.7184,-2.7183,-2.7181,-2.7186,-2.7194,-2.7216,-2.7169,-2.7173,-2.7164,-2.7162,-2.7178,-2.718,-2.7185,-2.7226,-2.7226,-2.7182,-2.7183,-2.7184,-2.7184,0,0,0,0,0,0,0,-2.7161,-2.7164,-2.7205,-2.7184,-2.7182,-2.7171,-2.7172,-2.7198,-2.7186,-2.7172,-2.7169,-2.7171,-2.7177,-2.7184,-2.7185,-2.7227,-2.7182,-2.7183,-2.7185,-2.7186,-2.7311,-2.7313,0,0,0,0,0,0,-2.7162,-2.7164,-2.7205,-2.7205,-2.7167,-2.7174,-2.7175,-2.7186,-2.7185,-2.7184,-2.7173,-2.7169,-2.7181,-2.7183,-2.7185,-2.7246,-2.7184,-2.7186,-2.7187,-2.7309,-2.7311,-2.7313,0,0,0,0,0,0,-2.7161,-2.7166,-2.7204,-2.7184,-2.7188,-2.7177,-2.7191,-2.7188,-2.7194,-2.7186,-2.7183,-2.7182,-2.718,-2.7183,-2.7217,-2.7245,-2.7187,-2.7189,-2.7306,-2.7309,-2.7312,-2.7366,0,0,0,0,0,0,-2.716,-2.7166,-2.7186,-2.7185,-2.7189,-2.7236,-2.7192,-2.7189,-2.7198,-2.7194,-2.7194,-2.7192,-2.7178,-2.7214,-2.7219,-2.7247,-2.719,-2.7303,-2.7308,-2.7311,-2.7361,-2.737,-2.7378,0,0,0,0,0,-2.7158,-2.7199,-2.7187,-2.7192,-2.7213,-2.7237,-2.724,-2.7224,-2.7201,-2.722,-2.7215,-2.7192,-2.7241,-2.7218,-2.7223,-2.7252,-2.7302,-2.7306,-2.7311,-2.7358,-2.7369,-2.7378,0,0,0,0,0,0,-2.7203,-2.7199,-2.7185,-2.7227,-2.7233,-2.723,-2.7254,-2.7236,-2.7248,-2.7243,-2.7223,-2.7223,-2.7261,-2.726,-2.7233,-2.7302,-2.7267,-2.7273,-2.7301,-2.7311,-2.732,-2.7319,-2.7192,0,0,0,0,0,-2.7218,-2.7239,-2.7234,-2.7272,-2.7276,-2.7264,-2.7274,-2.7262,-2.7267,-2.7269,-2.7266,-2.7271,-2.7288,-2.73,-2.7315,-2.7361,-2.7361,-2.7384,-2.7392,-2.7399,-2.7405,-2.743,-2.7441,-2.7329,-2.7329,-2.7329,0,0,-2.7248,-2.7249,-2.7263,-2.7281,-2.7284,-2.7306,-2.7267,-2.7291,-2.7307,-2.7272,-2.7305,-2.7303,-2.7308,-2.7349,-2.7366,-2.7349,-2.7436,-2.7405,-2.7411,-2.7412,-2.7436,-2.7447,-2.7456,-2.7332,-2.7331,-2.7331,0,0,-2.7316,-2.7318,-2.7351,-2.7355,-2.7361,-2.7354,-2.7362,-2.7362,-2.736,-2.7392,-2.7367,-2.7386,-2.7415,-2.742,-2.7426,-2.7498,-2.7477,-2.7503,-2.7546,-2.7572,-2.758,-2.7588,-2.7614,-2.7624,-2.7508,-2.7508,-2.7509,0,-2.7353,-2.7386,-2.7369,-2.7396,-2.7405,-2.7376,-2.7409,-2.7414,-2.7424,-2.7431,-2.7411,-2.7449,-2.7449,-2.7492,-2.751,-2.7515,-2.7524,-2.7503,-2.7581,-2.7588,-2.7595,-2.762,-2.763,-2.7512,-2.7511,-2.7511,-2.7511,0,-2.7432,-2.7455,-2.748,-2.7493,-2.7504,-2.7534,-2.7522,-2.7536,-2.7523,-2.7518,-2.7552,-2.7552,-2.7567,-2.7576,-2.7563,-2.7617,-2.7606,-2.7584,-2.7549,-2.7609,-2.7632,-2.7642,-2.7516,-2.7515,-2.7514,-2.7513,0,0,-2.7526,-2.7531,-2.7541,-2.7547,-2.7552,-2.7569,-2.7598,-2.7614,-2.7626,-2.7635,-2.7659,-2.7685,-2.7665,-2.7672,-2.7659,-2.7682,-2.774,-2.7657,-2.7656,-2.7673,-2.78,-2.7817,-2.7828,-2.7726,-2.7728,-2.7729,-2.78,0,-2.7593,-2.7644,-2.7631,-2.768,-2.7702,-2.7676,-2.7701,-2.7707,-2.7703,-2.7721,-2.7716,-2.7736,-2.7707,-2.7712,-2.7732,-2.7728,-2.7765,-2.7723,-2.7748,-2.7749,-2.7748,-2.784,-2.7858,-2.7925,-2.7809,-2.781,-2.7811,0,-2.7678,-2.7691,-2.7744,-2.7747,-2.7756,-2.7779,-2.7793,-2.781,-2.7817,-2.7812,-2.7822,-2.7805,-2.7833,-2.7799,-2.7838,-2.7809,-2.7819,-2.7819,-2.7821,-2.7823,-2.7784,-2.7845,-2.7945,-2.7956,-2.7825,-2.7824,-2.7823,0,-2.7743,-2.7774,-2.781,-2.7816,-2.782,-2.7837,-2.784,-2.7844,-2.7855,-2.7868,-2.7875,-2.789,-2.7898,-2.791,-2.7898,-2.7874,-2.794,-2.7903,-2.7937,-2.7938,-2.7952,-2.7951,-2.8056,-2.7958,-2.7958,-2.7957,-2.7957,0,-2.7819,-2.7852,-2.7839,-2.7862,-2.7898,-2.7883,-2.792,-2.7919,-2.7924,-2.7946,-2.7923,-2.7944,-2.7926,-2.7945,-2.7936,-2.797,-2.7974,-2.7971,-2.7969,-2.7974,-2.7974,-2.798,-2.7975,-2.796,-2.796,-2.7959,-2.7959,0,-2.7898,-2.789,-2.7928,-2.793,-2.7931,-2.7959,-2.796,-2.798,-2.7976,-2.8003,-2.8009,-2.8001,-2.8022,-2.8012,-2.8033,-2.8027,-2.8072,-2.8062,-2.807,-2.8068,-2.8102,-2.8099,-2.8214,-2.8228,-2.8121,-2.8122,-2.8123,0,-2.7947,-2.7973,-2.7978,-2.7992,-2.7996,-2.8018,-2.8029,-2.8016,-2.8029,-2.8039,-2.8059,-2.8078,-2.8093,-2.8128,-2.8124,-2.8141,-2.8132,-2.8171,-2.8134,-2.8139,-2.8133,-2.8132,-2.8135,-2.8179,-2.818,-2.8181,-2.8182,0,-2.8036,-2.8032,-2.805,-2.8068,-2.8083,-2.8095,-2.8106,-2.8118,-2.8105,-2.8121,-2.8143,-2.8155,-2.8178,-2.8198,-2.8213,-2.8215,-2.8196,-2.8194,-2.8202,-2.8208,-2.8212,-2.8211,-2.8091,-2.8191,-2.819,-2.8189,-2.8189,-2.8188,-2.8102,-2.8124,-2.8132,-2.8153,-2.8161,-2.8172,-2.8192,-2.819,-2.8209,-2.8227,-2.8218,-2.8244,-2.8251,-2.8269,-2.8274,-2.8294,-2.8278,-2.8291,-2.8294,-2.8297,-2.8302,-2.8208,-2.8296,-2.8296,-2.8296,-2.8295,-2.8295,0,-2.819,-2.8195,-2.8215,-2.8232,-2.8249,-2.8231,-2.8243,-2.8258,-2.8282,-2.829,-2.8306,-2.8332,-2.8352,-2.835,-2.8368,-2.8384,-2.8376,-2.8389,-2.8388,-2.8389,-2.8315,-2.8306,-2.8396,-2.8396,-2.8396,-2.8396,-2.8395,-2.8395,-2.8238,-2.8275,-2.8272,-2.8312,-2.8316,-2.8343,-2.8351,-2.8361,-2.8368,-2.8398,-2.8415,-2.8414,-2.8419,-2.8437,-2.8454,-2.8453,-2.8461,-2.8477,-2.8473,-2.8404,-2.8394,-2.8385,-2.8376,-2.8479,-2.8479,-2.8546,-2.8546,-2.8547]},{"header":{"parameterUnit":"m.s-1","parameterCategory":1,"la1":30.2991,"la2":30.254,"lo1":-89.0895,"lo2":-89.0444,"dy":0.0017,"dx":0.0017,"nx":28,"ny":28,"refTime":"2026-02-15T03:00:00:Z","depth":0,"parameterNumber":3,"parameterNumberName":"V-component_of_WINDS"},"data":[0,0,0,0,0,0,0,0,0,0,0,0,0,0,0,0,0,0,0,0,0,0,0,0,0,0,0,0,0,0,0,0,0,0,0,0,0,0,0,0,0,0,0,0,0,0,0,0,0,0,0,0,0,0,0,0,0,0,-0.6379,-0.6381,0,-0.6506,-0.6508,-0.6509,-0.6553,-0.6553,-0.6552,-0.6552,-0.6682,-0.6686,-0.669,0,0,0,0,0,0,0,0,0,0,0,0,0,-0.6173,-0.6177,-0.6379,-0.6381,-0.6382,-0.6506,-0.6508,-0.651,-0.6553,-0.6553,-0.6552,-0.6552,-0.6681,-0.6685,-0.669,0,0,0,0,0,0,0,0,0,0,0,0,0,-0.6278,-0.6178,-0.6379,-0.6419,-0.6424,-0.6506,-0.6508,-0.651,-0.6554,-0.6553,-0.6552,-0.6551,-0.6679,-0.6685,-0.6691,-0.6742,0,0,-0.6709,-0.6711,0,0,0,0,0,0,0,0,-0.6272,-0.6285,-0.6412,-0.6417,-0.6422,-0.6513,-0.6483,-0.6588,-0.6554,-0.6504,-0.6552,-0.6551,-0.6626,-0.6637,-0.6662,-0.6748,-0.6753,-0.6709,-0.6713,-0.6715,-0.6717,0,0,0,0,0,0,0,-0.6265,-0.628,-0.643,-0.6413,-0.642,-0.6431,-0.6445,-0.6503,-0.6568,-0.6509,-0.6512,-0.6527,-0.6629,-0.6656,-0.6665,-0.6755,-0.6709,-0.6714,-0.6718,-0.672,-0.6889,-0.689,0,0,0,0,0,0,-0.6251,-0.6274,-0.6426,-0.6433,-0.6344,-0.6435,-0.6451,-0.6485,-0.6567,-0.6579,-0.6527,-0.6528,-0.6647,-0.6658,-0.667,-0.6736,-0.6715,-0.6721,-0.6724,-0.6888,-0.6889,-0.689,0,0,0,0,0,0,-0.6246,-0.6264,-0.642,-0.6355,-0.6375,-0.6439,-0.6477,-0.6488,-0.6515,-0.6581,-0.6593,-0.6543,-0.6646,-0.6662,-0.6724,-0.6741,-0.6723,-0.6729,-0.6887,-0.6888,-0.689,-0.6867,0,0,0,0,0,0,-0.624,-0.6262,-0.6282,-0.6355,-0.6379,-0.6472,-0.6478,-0.6491,-0.6525,-0.6528,-0.6599,-0.6611,-0.6647,-0.6715,-0.6729,-0.6749,-0.6733,-0.6886,-0.6888,-0.6889,-0.6867,-0.6868,-0.6869,0,0,0,0,0,-0.6232,-0.6271,-0.6283,-0.6301,-0.6405,-0.6473,-0.6487,-0.6528,-0.6526,-0.6547,-0.659,-0.6608,-0.6736,-0.672,-0.6738,-0.6759,-0.6885,-0.6887,-0.6889,-0.6866,-0.6868,-0.6869,0,0,0,0,0,0,-0.6199,-0.6281,-0.6296,-0.6358,-0.6408,-0.648,-0.6508,-0.6528,-0.6579,-0.6579,-0.6628,-0.6644,-0.6702,-0.6736,-0.6717,-0.6813,-0.6812,-0.6817,-0.6788,-0.679,-0.6791,-0.6782,-0.6738,0,0,0,0,0,-0.6198,-0.6246,-0.6316,-0.6364,-0.6389,-0.6444,-0.6475,-0.6502,-0.6556,-0.6577,-0.6624,-0.6675,-0.6727,-0.676,-0.6811,-0.6871,-0.6888,-0.6894,-0.6895,-0.6895,-0.69,-0.6935,-0.6939,-0.6897,-0.6897,-0.6897,0,0,-0.6199,-0.625,-0.6277,-0.6359,-0.6401,-0.6449,-0.6461,-0.6512,-0.6549,-0.6585,-0.6646,-0.6682,-0.6742,-0.6803,-0.6833,-0.6834,-0.6915,-0.6898,-0.6898,-0.6903,-0.6938,-0.6941,-0.6945,-0.6899,-0.6899,-0.6898,0,0,-0.6224,-0.6267,-0.6313,-0.6355,-0.6418,-0.6454,-0.6465,-0.6534,-0.6559,-0.6621,-0.6649,-0.6693,-0.6781,-0.6823,-0.6856,-0.6896,-0.6915,-0.6911,-0.6916,-0.6949,-0.6953,-0.6956,-0.6971,-0.6976,-0.6915,-0.6915,-0.6915,0,-0.6217,-0.6292,-0.6334,-0.6384,-0.6419,-0.6453,-0.65,-0.6538,-0.6614,-0.6637,-0.6638,-0.6749,-0.6792,-0.6863,-0.6873,-0.6898,-0.6912,-0.6904,-0.6949,-0.6952,-0.6956,-0.6971,-0.6976,-0.6914,-0.6914,-0.6914,-0.6914,0,-0.6279,-0.6331,-0.636,-0.6433,-0.6471,-0.6519,-0.6568,-0.6602,-0.6625,-0.6661,-0.6724,-0.6776,-0.6839,-0.6857,-0.6881,-0.6932,-0.6931,-0.6939,-0.6939,-0.6958,-0.6973,-0.6979,-0.6913,-0.6913,-0.6913,-0.6914,0,0,-0.6289,-0.6384,-0.6395,-0.6428,-0.65,-0.654,-0.6589,-0.665,-0.6678,-0.6729,-0.6772,-0.6845,-0.6853,-0.689,-0.6918,-0.6946,-0.6976,-0.6951,-0.6953,-0.6955,-0.7036,-0.7031,-0.7037,-0.6988,-0.6989,-0.699,-0.7031,0,-0.6325,-0.6415,-0.6454,-0.6526,-0.6573,-0.6606,-0.6648,-0.6697,-0.6731,-0.6776,-0.6814,-0.6866,-0.6872,-0.6894,-0.6924,-0.6966,-0.6993,-0.6963,-0.7029,-0.703,-0.7014,-0.7044,-0.7039,-0.7076,-0.7037,-0.7039,-0.7039,0,-0.638,-0.6431,-0.6508,-0.6573,-0.6595,-0.6633,-0.6692,-0.6735,-0.679,-0.6813,-0.6853,-0.688,-0.6932,-0.6927,-0.7,-0.6979,-0.7008,-0.7032,-0.7034,-0.7043,-0.7037,-0.7055,-0.7088,-0.7094,-0.7049,-0.7048,-0.7047,0,-0.6381,-0.6469,-0.6526,-0.6554,-0.6631,-0.6657,-0.6691,-0.6745,-0.6779,-0.683,-0.6853,-0.6909,-0.694,-0.6983,-0.7024,-0.7017,-0.7093,-0.7092,-0.7114,-0.7113,-0.713,-0.7129,-0.7169,-0.7146,-0.7146,-0.7146,-0.7146,0,-0.6418,-0.6463,-0.6528,-0.6563,-0.6615,-0.6659,-0.6709,-0.6745,-0.6792,-0.6835,-0.6866,-0.6905,-0.6956,-0.7002,-0.7034,-0.7089,-0.7103,-0.7123,-0.7131,-0.7121,-0.7119,-0.7142,-0.7141,-0.7147,-0.7147,-0.7147,-0.7146,0,-0.6428,-0.6473,-0.6538,-0.6606,-0.6624,-0.6659,-0.6717,-0.6753,-0.6788,-0.6841,-0.6857,-0.6912,-0.6967,-0.7012,-0.7084,-0.7105,-0.7164,-0.7173,-0.7146,-0.715,-0.7171,-0.7169,-0.7229,-0.7239,-0.7207,-0.7207,-0.7207,0,-0.645,-0.6486,-0.6558,-0.6589,-0.6622,-0.6671,-0.6706,-0.675,-0.6785,-0.685,-0.6877,-0.6934,-0.6983,-0.707,-0.7116,-0.7171,-0.7182,-0.7199,-0.7191,-0.718,-0.7184,-0.7182,-0.7186,-0.7201,-0.7201,-0.7201,-0.7201,0,-0.6484,-0.6504,-0.6553,-0.6611,-0.6651,-0.6698,-0.6746,-0.6769,-0.6821,-0.6859,-0.6916,-0.6954,-0.7027,-0.7084,-0.7143,-0.7178,-0.7198,-0.7203,-0.7212,-0.7203,-0.7186,-0.7196,-0.715,-0.7202,-0.7202,-0.7202,-0.7202,-0.7202,-0.6502,-0.6536,-0.6591,-0.6645,-0.6685,-0.6729,-0.6766,-0.6805,-0.6853,-0.6917,-0.6939,-0.6998,-0.7051,-0.7134,-0.7168,-0.7214,-0.7216,-0.7228,-0.7231,-0.7234,-0.7233,-0.7177,-0.7225,-0.7225,-0.7225,-0.7225,-0.7225,0,-0.6539,-0.6576,-0.6625,-0.669,-0.6733,-0.6748,-0.6801,-0.6835,-0.6886,-0.6934,-0.6981,-0.7046,-0.7101,-0.7151,-0.7209,-0.7236,-0.7247,-0.7249,-0.7249,-0.7256,-0.7228,-0.7216,-0.724,-0.724,-0.724,-0.724,-0.724,-0.724,-0.6563,-0.6621,-0.6647,-0.6725,-0.6762,-0.682,-0.6849,-0.6889,-0.6928,-0.6999,-0.7045,-0.7077,-0.7126,-0.7187,-0.7238,-0.7251,-0.7271,-0.7272,-0.7287,-0.726,-0.7258,-0.7256,-0.7245,-0.7275,-0.7275,-0.7312,-0.7313,-0.7313]}]]